Weather History for Sherman-Denison, TX

Change the Weather History Date:

Wednesday, October 31, 2012

  Actual Average (KDFW) Record (KDFW)
Temperature  
Mean Temperature 62 °F 63 °F  
Max Temperature 77 °F 73 °F 89 °F (1977)
Min Temperature 46 °F 52 °F 29 °F (1993)
Degree Days  
Heating Degree Days 4 5  
Month to date heating degree days 67  
Since 1 July heating degree days 72  
Cooling Degree Days 0 2  
Month to date cooling degree days 146  
Year to date cooling degree days 2723  
Growing Degree Days 12 (Base 50)    
Moisture  
Dew Point 44 °F    
Average Humidity 55    
Maximum Humidity 93    
Minimum Humidity 29    
Precipitation  
Precipitation 0.00 in 0.14 in 3.63 in (1981)
Month to date precipitation 4.22  
Year to date precipitation 30.88  
Snow  
Snow 0.00 in 0.00 in 0.00 in ()
Month to date snowfall 0.0  
Since 1 July snowfall 0.0  
Since 1 September snowfall 0.0  
Snow Depth -    
Sea Level Pressure  
Sea Level Pressure 30.00 in    
Wind  
Wind Speed 6 mph (NW)    
Max Wind Speed 13 mph    
Max Gust Speed -    
Visibility 10 miles    
Events      
T = Trace of Precipitation, MM = Missing Value Source: NWS Daily Summary

Daily Weather History Graph

Daily Weather History Graph

Search for Another Location

Airport:

Trip Planner

Search our weather history database for the weather conditions in past years. The results will help you decide how hot, cold, wet, or windy it might be!

Date:

Astronomy

Oct. 31, 2012 Rise Set
Actual Time 7:45 AM CDT 6:34 PM CDT
Civil Twilight 7:19 AM CDT 7:00 PM CDT
Nautical Twilight 6:50 AM CDT 7:29 PM CDT
Astronomical Twilight 6:21 AM CDT 7:59 PM CDT
Moon 7:52 PM CDT (10/31) 9:22 AM CDT (10/31)
Length of Visible Light 11h 40m
Length of Day
10h 49m
Full, 97% of the Moon is Illuminated
Oct 31
Full
Nov 6
Last Quarter
Nov 13
New
Nov 20
First Quarter
Nov 28
Full

Hourly Weather History & Observations

Time (CDT) Temp. Windchill Dew Point Humidity Pressure Visibility Wind Dir Wind Speed Gust Speed Precip Events Conditions
12:35 AM 55.4 °F - 41.0 °F 58% 29.96 in 10.0 mi SSW 6.9 mph - N/A   Clear
12:55 AM 55.4 °F - 42.8 °F 63% 29.95 in 10.0 mi South 9.2 mph - N/A   Clear
1:15 AM 55.4 °F - 42.8 °F 63% 29.95 in 10.0 mi SSW 9.2 mph - N/A   Clear
1:35 AM 55.4 °F - 42.8 °F 63% 29.96 in 10.0 mi SSW 8.1 mph - N/A   Clear
1:55 AM 55.4 °F - 42.8 °F 63% 29.95 in 10.0 mi SSW 8.1 mph - N/A   Clear
2:15 AM 55.4 °F - 42.8 °F 63% 29.95 in 10.0 mi SSW 10.4 mph - N/A   Clear
2:35 AM 57.2 °F - 42.8 °F 59% 29.95 in 10.0 mi SSW 12.7 mph - N/A   Clear
2:55 AM 57.2 °F - 42.8 °F 59% 29.95 in 10.0 mi SSW 10.4 mph - N/A   Clear
3:15 AM 55.4 °F - 42.8 °F 63% 29.95 in 10.0 mi SSW 10.4 mph - N/A   Clear
3:35 AM 55.4 °F - 42.8 °F 63% 29.95 in 10.0 mi SW 9.2 mph - N/A   Clear
3:55 AM 55.4 °F - 42.8 °F 63% 29.95 in 10.0 mi SW 9.2 mph - N/A   Clear
4:15 AM 53.6 °F - 42.8 °F 67% 29.96 in 10.0 mi SW 6.9 mph - N/A   Clear
4:35 AM 53.6 °F - 42.8 °F 67% 29.96 in 10.0 mi SW 8.1 mph - N/A   Clear
4:55 AM 51.8 °F - 42.8 °F 71% 29.96 in 10.0 mi SW 6.9 mph - N/A   Clear
5:15 AM 51.8 °F - 42.8 °F 71% 29.95 in 10.0 mi SSW 9.2 mph - N/A   Clear
5:35 AM 51.8 °F - 42.8 °F 71% 29.96 in 10.0 mi WSW 4.6 mph - N/A   Clear
5:55 AM 51.8 °F - 42.8 °F 71% 29.96 in 10.0 mi WSW 4.6 mph - N/A   Clear
6:15 AM 50.0 °F - 42.8 °F 76% 29.96 in 10.0 mi West 4.6 mph - N/A   Clear
6:35 AM 48.2 °F - 42.8 °F 82% 29.97 in 10.0 mi Calm Calm - N/A   Clear
6:55 AM 46.4 °F - 42.8 °F 87% 29.97 in 10.0 mi Calm Calm - N/A   Clear
7:15 AM 48.2 °F - 42.8 °F 82% 29.97 in 10.0 mi WSW 3.5 mph - N/A   Clear
7:35 AM 46.4 °F 45.2 °F 42.8 °F 87% 29.98 in 10.0 mi WSW 3.5 mph - N/A   Clear
7:55 AM 46.4 °F 43.5 °F 42.8 °F 87% 29.99 in 10.0 mi West 5.8 mph - N/A   Clear
8:15 AM 46.4 °F 42.9 °F 44.6 °F 93% 30.00 in 10.0 mi WNW 6.9 mph - N/A   Clear
8:35 AM 50.0 °F - 44.6 °F 82% 30.01 in 10.0 mi NW 5.8 mph - N/A   Clear
8:55 AM 53.6 °F - 44.6 °F 72% 30.01 in 10.0 mi NNW 8.1 mph - N/A   Clear
9:15 AM 55.4 °F - 42.8 °F 63% 30.02 in 10.0 mi NNW 9.2 mph - N/A   Clear
9:35 AM 57.2 °F - 44.6 °F 63% 30.03 in 10.0 mi North 8.1 mph - N/A   Clear
9:55 AM 59.0 °F - 44.6 °F 59% 30.03 in 10.0 mi North 6.9 mph - N/A   Clear
10:15 AM 60.8 °F - 42.8 °F 52% 30.03 in 10.0 mi NNW 8.1 mph - N/A   Clear
10:35 AM 62.6 °F - 42.8 °F 48% 30.04 in 10.0 mi North 9.2 mph - N/A   Clear
10:55 AM 62.6 °F - 42.8 °F 48% 30.04 in 10.0 mi NNW 5.8 mph - N/A   Clear
11:15 AM 64.4 °F - 44.6 °F 49% 30.04 in 10.0 mi North 5.8 mph - N/A   Clear
11:35 AM 66.2 °F - 44.6 °F 46% 30.04 in 10.0 mi NNW 4.6 mph - N/A   Clear
11:55 AM 69.8 °F - 44.6 °F 40% 30.04 in 10.0 mi WNW 3.5 mph - N/A   Clear
12:15 PM 71.6 °F - 44.6 °F 38% 30.04 in 10.0 mi NNW 5.8 mph - N/A   Clear
12:35 PM 71.6 °F - 44.6 °F 38% 30.04 in 10.0 mi North 4.6 mph - N/A   Clear
12:55 PM 73.4 °F - 44.6 °F 36% 30.03 in 10.0 mi NNE 6.9 mph - N/A   Clear
1:15 PM 73.4 °F - 44.6 °F 36% 30.03 in 10.0 mi North 9.2 mph - N/A   Clear
1:35 PM 73.4 °F - 42.8 °F 33% 30.03 in 10.0 mi NNE 9.2 mph - N/A   Clear
1:55 PM 73.4 °F - 42.8 °F 33% 30.02 in 10.0 mi NNE 9.2 mph - N/A   Clear
2:15 PM 75.2 °F - 44.6 °F 34% 30.02 in 10.0 mi NNE 8.1 mph - N/A   Clear
2:35 PM 77.0 °F - 42.8 °F 29% 30.01 in 10.0 mi North 8.1 mph - N/A   Clear
2:55 PM 77.0 °F - 42.8 °F 29% 30.01 in 10.0 mi NE 6.9 mph - N/A   Clear
3:15 PM 77.0 °F - 42.8 °F 29% 30.00 in 10.0 mi NNE 5.8 mph - N/A   Clear
3:35 PM 77.0 °F - 42.8 °F 29% 30.00 in 10.0 mi NNE 8.1 mph - N/A   Clear
3:55 PM 77.0 °F - 42.8 °F 29% 30.00 in 10.0 mi NNE 5.8 mph - N/A   Clear
4:15 PM 77.0 °F - 42.8 °F 29% 30.00 in 10.0 mi North 4.6 mph - N/A   Clear
4:35 PM 77.0 °F - 42.8 °F 29% 30.00 in 10.0 mi NE 4.6 mph - N/A   Clear
4:55 PM 77.0 °F - 42.8 °F 29% 30.00 in 10.0 mi Calm Calm - N/A   Clear
5:15 PM 77.0 °F - 42.8 °F 29% 30.00 in 10.0 mi NW 3.5 mph - N/A   Clear
5:35 PM 75.2 °F - 42.8 °F 31% 30.00 in 10.0 mi Calm Calm - N/A   Clear
5:55 PM 73.4 °F - 44.6 °F 36% 29.99 in 10.0 mi Calm Calm - N/A   Clear
6:15 PM 73.4 °F - 42.8 °F 33% 29.99 in 10.0 mi Calm Calm - N/A   Clear
6:35 PM 71.6 °F - 42.8 °F 35% 29.99 in 10.0 mi Calm Calm - N/A   Clear
6:55 PM 69.8 °F - 44.6 °F 40% 30.00 in 10.0 mi Calm Calm - N/A   Clear
7:15 PM 68.0 °F - 44.6 °F 43% 30.00 in 10.0 mi Calm Calm - N/A   Clear
7:35 PM 66.2 °F - 44.6 °F 46% 30.00 in 5.0 mi Calm Calm - N/A   Haze
7:55 PM 62.6 °F - 46.4 °F 55% 30.01 in 10.0 mi Calm Calm - N/A   Clear
8:15 PM 62.6 °F - 46.4 °F 55% 30.01 in 7.0 mi Calm Calm - N/A   Clear
8:35 PM 59.0 °F - 46.4 °F 63% 30.01 in 5.0 mi Calm Calm - N/A   Haze
8:55 PM 59.0 °F - 46.4 °F 63% 30.01 in 10.0 mi Calm Calm - N/A   Clear
9:15 PM 59.0 °F - 46.4 °F 63% 30.01 in 10.0 mi Calm Calm - N/A   Clear
9:35 PM 59.0 °F - 44.6 °F 59% 30.02 in 10.0 mi Calm Calm - N/A   Clear
9:55 PM 59.0 °F - 44.6 °F 59% 30.02 in 10.0 mi Calm Calm - N/A   Clear
10:15 PM 57.2 °F - 44.6 °F 63% 30.02 in 10.0 mi Calm Calm - N/A   Clear
10:35 PM 59.0 °F - 44.6 °F 59% 30.02 in 10.0 mi Calm Calm - N/A   Clear
10:55 PM 55.4 °F - 44.6 °F 67% 30.02 in 10.0 mi Calm Calm - N/A   Clear
11:15 PM 53.6 °F - 44.6 °F 72% 30.02 in 10.0 mi Calm Calm - N/A   Clear
11:35 PM 53.6 °F - 44.6 °F 72% 30.02 in 10.0 mi Calm Calm - N/A   Clear
11:55 PM 53.6 °F - 44.6 °F 72% 30.02 in 10.0 mi Calm Calm - N/A   Clear